Погода в Ле-Менюире

Франция     45°19′24″N   6°32′14″E
темп.,
°C
ветер,
м/с
пор.,
м/с
влажн.,
%
обл.,
%
осадки,
мм/ч
давл.,
гПа
погр.,
м
2 декабря, чт
чт201:00−4сз3498100 5.1 1005297
04:00−5ссз3398100 0.8 1005275
07:00−7ссз2499100 1.4 1004168
10:00−6сз3496100 0.7 1005359
13:00−5сз4491100 1.1 1004572
16:00−6сз4597100 1.8 1002407
19:00−10сз4598100 4.8 1008340
22:00−11сз4599100 1.4 1010186
3 декабря, пт
пт301:00−14ссз3499100 2.0 101557
04:00−17св1210098 0.3 101940
07:00−20вюв129857 0.3 102415
10:00−12св118313 0.0 102073
13:00−9ссз237148 0.0 1018280
16:00−11ссв118490 0.0 101911
19:00−13юв225112 0.0 102214
22:00−9ююв225683 0.0 101917
4 декабря, сб
сб401:00−6ююв2396100 2.0 101674
04:00−2зюз2299100 10.8 1012105
07:00−1зюз2299100 24.4 1009117
10:00−1з23100100 14.9 1008128
13:00−1з2399100 27.8 1006179
16:00−1зсз4599100 9.7 1005293
19:00−3зсз3498100 16.6 1007234
22:00−6зсз3498100 6.4 1012158
5 декабря, вс
вс501:00−10зсз2299100 7.7 101432
04:00−10зсз239999 0.4 101389
07:00−11з1198100 0.9 101229
10:00−9зсз1296100 2.1 1011166
13:00−8сз349297 3.7 1010599
16:00−9сз349898 0.8 1010261
19:00−11зсз1198100 1.6 101317
22:00−16юв1299100 0.3 101813
6 декабря, пн
пн601:00−17вюв1199100 0.5 101913
04:00−17в1299100 0.3 102122
07:00−17в1299100 0.4 102412
10:00−12ссв129681 0.1 102396
13:00−9ссз238959 0.1 1022327
16:00−13с1110091 0.0 102610
19:00−17юв2293100 0.0 103314
22:00−16юв22815 0.0 103315